Location: Pedholt
(56.0260°N, 10.2097°E)
Time: 05:34:03
(UTC+00:00)

Lacrosse 5 - Pass Details

Date: 14 July 2020
Orbit: 717 x 720 km, 57.0° (Epoch: 11 August)

Event Time Altitude Azimuth Distance (km) Brightness Sun altitude
Rises 01:50:07 0° 256° (WSW) 3,122 4.7 -6.5°
Reaches altitude 10° 01:52:29 10° 257° (WSW) 2,203 4.0 -6.3°
Maximum altitude 01:57:35 87° 348° (NNW) 726 2.0 -5.9°
Drops below altitude 10° 02:02:41 10° 78° (ENE) 2,207 5.2 -5.5°
Sets 02:05:04 0° 78° (ENE) 3,128 6.0 -5.3°
